Weather History for LHBP - October, 2012

Change the Weather History Date:

Wednesday, October 31, 2012

  Actual Average Record
Temperature  
Mean Temperature 37 °F -  
Max Temperature 44 °F 46 °F 73 °F (2000)
Min Temperature 30 °F 33 °F 21 °F (2006)
Degree Days  
Heating Degree Days 28    
Moisture  
Dew Point 32 °F    
Average Humidity 81    
Maximum Humidity 93    
Minimum Humidity 65    
Precipitation  
Precipitation 0.00 in - - ()
Sea Level Pressure  
Sea Level Pressure 29.93 in    
Wind  
Wind Speed 7 mph ()    
Max Wind Speed 15 mph    
Max Gust Speed -    
Visibility 6.1 miles    
Events      
Averages and records for this station are not official NWS values.
T = Trace of Precipitation, MM = Missing Value Source: Averaged Metar Reports

Daily Weather History Graph

Daily Weather History Graph

Search for Another Location

Airport or City:

Trip Planner

Search our weather history database for the weather conditions in past years. The results will help you decide how hot, cold, wet, or windy it might be!

Date:

Astronomy

Oct. 31, 2012 Rise Set
Actual Time 6:25 AM CET 4:27 PM CET
Civil Twilight 5:53 AM CET 4:59 PM CET
Nautical Twilight 5:17 AM CET 5:35 PM CET
Astronomical Twilight 4:41 AM CET 6:10 PM CET
Moon 5:17 PM CET (10/31) 7:57 AM CET (10/31)
Length of Visible Light 11h 05m
Length of Day
10h 01m
Full, 98% of the Moon is Illuminated
Oct 31
Full
Nov 7
Last Quarter
Nov 13
New
Nov 20
First Quarter
Nov 28
Full

Hourly Weather History & Observations

Time (CET) Temp. Windchill Dew Point Humidity Pressure Visibility Wind Dir Wind Speed Gust Speed Precip Events Conditions
12:00 AM 33.8 °F 28.6 °F 30.2 °F 87% 29.92 in - SSE 5.8 mph - N/A   Clear
12:30 AM 33.8 °F 28.6 °F 30.2 °F 87% 29.92 in - South 5.8 mph - N/A   Clear
1:00 AM 32.0 °F 27.5 °F 28.4 °F 87% 29.92 in - East 4.6 mph - N/A   Clear
1:30 AM 30.2 °F 25.4 °F 28.4 °F 93% 29.92 in - East 4.6 mph - N/A   Clear
2:00 AM 30.2 °F 24.3 °F 28.4 °F 93% 29.92 in 6.2 mi East 5.8 mph - N/A   Scattered Clouds
2:30 AM 32.0 °F 25.6 °F 28.4 °F 87% 29.92 in 6.2 mi SE 6.9 mph - N/A   Mostly Cloudy
3:00 AM 32.0 °F 27.5 °F 30.2 °F 93% 29.92 in 6.2 mi East 4.6 mph - N/A   Mostly Cloudy
3:30 AM 32.0 °F 26.4 °F 28.4 °F 87% 29.92 in 6.2 mi East 5.8 mph - N/A   Scattered Clouds
4:00 AM 32.0 °F 26.4 °F 28.4 °F 87% 29.92 in 6.2 mi East 5.8 mph - N/A   Mostly Cloudy
4:30 AM 32.0 °F 25.6 °F 30.2 °F 93% 29.92 in 6.2 mi East 6.9 mph - N/A   Mostly Cloudy
5:00 AM 33.8 °F 27.7 °F 30.2 °F 87% 29.92 in 6.2 mi East 6.9 mph - N/A   Mostly Cloudy
5:30 AM 33.8 °F 27.7 °F 30.2 °F 87% 29.92 in 6.2 mi ESE 6.9 mph - N/A   Mostly Cloudy
6:00 AM 32.0 °F 24.8 °F 28.4 °F 87% 29.92 in 6.2 mi ESE 8.1 mph - N/A   Mostly Cloudy
6:30 AM 33.8 °F 27.7 °F 30.2 °F 87% 29.92 in 6.2 mi ESE 6.9 mph - N/A   Mostly Cloudy
7:00 AM 33.8 °F 27.7 °F 30.2 °F 87% 29.95 in 6.2 mi ESE 6.9 mph - N/A   Mostly Cloudy
7:30 AM 33.8 °F 27.7 °F 32.0 °F 93% 29.95 in 5.0 mi East 6.9 mph - N/A   Mostly Cloudy
8:00 AM 35.6 °F 29.2 °F 32.0 °F 87% 29.95 in 3.7 mi ESE 8.1 mph - N/A   Mostly Cloudy
8:30 AM 35.6 °F 29.2 °F 32.0 °F 87% 29.95 in 5.0 mi ESE 8.1 mph - N/A   Mostly Cloudy
9:00 AM 37.4 °F 32.1 °F 32.0 °F 81% 29.95 in 6.2 mi ESE 6.9 mph - N/A   Mostly Cloudy
9:30 AM 39.2 °F 33.6 °F 32.0 °F 75% 29.98 in 6.2 mi ESE 8.1 mph - N/A   Mostly Cloudy
10:00 AM 39.2 °F 33.0 °F 32.0 °F 75% 29.98 in 6.2 mi ESE 9.2 mph - N/A   Mostly Cloudy
10:30 AM 41.0 °F 35.2 °F 33.8 °F 76% 29.98 in 6.2 mi ESE 9.2 mph - N/A   Mostly Cloudy
11:00 AM 41.0 °F 35.8 °F 33.8 °F 76% 29.98 in 6.2 mi East 8.1 mph - N/A   Mostly Cloudy
11:30 AM 41.0 °F 35.2 °F 33.8 °F 76% 29.95 in 6.2 mi East 9.2 mph - N/A   Mostly Cloudy
12:00 PM 41.0 °F 34.7 °F 33.8 °F 76% 29.95 in 6.2 mi East 10.4 mph - N/A   Mostly Cloudy
12:30 PM 42.8 °F 37.0 °F 33.8 °F 70% 29.95 in 6.2 mi East 10.4 mph - N/A   Mostly Cloudy
1:00 PM 42.8 °F 37.0 °F 35.6 °F 76% 29.95 in 6.2 mi East 10.4 mph - N/A   Mostly Cloudy
1:30 PM 44.6 °F 39.2 °F 35.6 °F 71% 29.95 in 6.2 mi East 10.4 mph - N/A   Mostly Cloudy
2:00 PM 44.6 °F 39.2 °F 35.6 °F 71% 29.95 in 6.2 mi East 10.4 mph - N/A   Mostly Cloudy
2:30 PM 44.6 °F 39.2 °F 37.4 °F 76% 29.95 in 6.2 mi East 10.4 mph - N/A   Mostly Cloudy
3:00 PM 44.6 °F 38.4 °F 37.4 °F 76% 29.95 in 6.2 mi East 12.7 mph - N/A   Scattered Clouds
3:30 PM 44.6 °F 37.8 °F 35.6 °F 71% 29.92 in 6.2 mi East 15.0 mph - N/A   Scattered Clouds
4:00 PM 44.6 °F 39.2 °F 35.6 °F 71% 29.92 in 6.2 mi East 10.4 mph - N/A   Mostly Cloudy
4:30 PM 44.6 °F 39.2 °F 35.6 °F 71% 29.92 in 6.2 mi East 10.4 mph - N/A   Mostly Cloudy
5:00 PM 41.0 °F 35.2 °F 35.6 °F 81% 29.92 in 6.2 mi East 9.2 mph - N/A   Mostly Cloudy
5:30 PM 41.0 °F 35.2 °F 35.6 °F 81% 29.92 in 6.2 mi East 9.2 mph - N/A   Scattered Clouds
6:00 PM 41.0 °F 35.2 °F 35.6 °F 81% 29.92 in 6.2 mi East 9.2 mph - N/A   Scattered Clouds
6:30 PM 41.0 °F 35.8 °F 35.6 °F 81% 29.92 in 6.2 mi East 8.1 mph - N/A   Scattered Clouds
7:00 PM 41.0 °F 35.2 °F 35.6 °F 81% 29.92 in 6.2 mi East 9.2 mph - N/A   Scattered Clouds
7:30 PM 39.2 °F 33.6 °F 33.8 °F 81% 29.92 in - East 8.1 mph - N/A   Clear
8:00 PM 37.4 °F 31.4 °F 33.8 °F 87% 29.95 in - East 8.1 mph - N/A   Clear
8:30 PM 39.2 °F 33.0 °F 33.8 °F 81% 29.92 in - East 9.2 mph - N/A   Clear
9:00 PM 37.4 °F 31.4 °F 33.8 °F 87% 29.92 in - East 8.1 mph - N/A   Clear
9:30 PM 39.2 °F 33.0 °F 32.0 °F 75% 29.92 in - East 9.2 mph - N/A   Clear
10:00 PM 39.2 °F 31.6 °F 32.0 °F 75% 29.89 in - ENE 12.7 mph - N/A   Clear
10:30 PM 39.2 °F 31.6 °F 30.2 °F 70% 29.89 in - ENE 12.7 mph - N/A   Clear
11:00 PM 39.2 °F 31.2 °F 28.4 °F 65% 29.86 in - ENE 13.8 mph - N/A   Clear
11:30 PM 39.2 °F 30.8 °F 28.4 °F 65% 29.86 in - East 15.0 mph - N/A   Clear